FW5282 Weather Reports


Display with metric or nautical units.
time (UTC)temp
F
wind
direction
speed
MPH
gust
MPH
rain 1hr
in
rain 24hr
in
rain mn
in
humidity
%
barometer
mb
20260831204542 65 284 0.0 0.0 0.00 0.00 0.00 75 1018.9
20260831204040 65 284 0.0 1.0 0.00 0.00 0.00 75 1018.9
20260831203544 66 284 0.0 1.0 0.00 0.00 0.00 75 1018.9
20260831203037 66 297 0.0 0.0 0.00 0.00 0.00 74 1018.9
20260831202530 66 297 0.0 0.0 0.00 0.00 0.00 73 1018.9
20260831202040 66 297 0.0 0.0 0.00 0.00 0.00 73 1018.8
20260831201534 66 297 0.0 0.0 0.00 0.00 0.00 72 1018.7
20260831201053 67 297 0.0 0.0 0.00 0.00 0.00 71 1018.8
20260831200544 67 297 0.0 1.0 0.00 0.00 0.00 70 1018.8
20260831200035 67 297 0.0 1.0 0.00 0.00 0.00 70 1018.7
20260831195545 67 303 0.0 1.0 0.00 0.00 0.00 69 1018.7
20260831195040 67 306 0.0 1.0 0.00 0.00 0.00 69 1018.6
20260831194536 68 307 0.0 1.0 0.00 0.00 0.00 68 1018.5
20260831194031 68 309 0.0 1.0 0.00 0.00 0.00 68 1018.5
20260831193542 68 311 0.0 1.0 0.00 0.00 0.00 67 1018.4
20260831193034 68 311 0.0 1.0 0.00 0.00 0.00 67 1018.4
20260831192531 68 313 0.0 2.0 0.00 0.00 0.00 67 1018.3
20260831192042 69 319 1.0 2.0 0.00 0.00 0.00 65 1018.3
20260831191534 69 312 0.0 1.0 0.00 0.00 0.00 65 1018.2
20260831191025 69 303 0.0 1.0 0.00 0.00 0.00 64 1018.1
20260831190547 69 294 0.0 1.0 0.00 0.00 0.00 63 1018.1
20260831190041 70 297 0.0 1.0 0.00 0.00 0.00 63 1018.1
20260831185534 70 325 0.0 1.0 0.00 0.00 0.00 62 1018.0
20260831185031 70 325 0.0 2.0 0.00 0.00 0.00 62 1017.9
20260831184539 71 329 1.0 2.0 0.00 0.00 0.00 61 1017.9
20260831184036 71 319 0.0 2.0 0.00 0.00 0.00 60 1017.8
20260831183553 71 337 0.0 1.0 0.00 0.00 0.00 60 1017.7
20260831183045 72 310 0.0 1.0 0.00 0.00 0.00 58 1017.7
20260831182541 72 305 0.0 2.0 0.00 0.00 0.00 57 1017.6
20260831182032 73 305 0.0 2.0 0.00 0.00 0.00 57 1017.5
20260831181553 73 280 0.0 1.0 0.00 0.00 0.00 55 1017.4
20260831181042 73 306 0.0 4.0 0.00 0.00 0.00 55 1017.4
20260831180559 74 287 1.0 4.0 0.00 0.00 0.00 56 1017.3
20260831180027 74 303 2.0 4.0 0.00 0.04 0.00 54 1017.2
20260831175542 74 321 1.0 6.0 0.00 0.04 0.00 54 1017.2
20260831175037 74 298 2.0 6.0 0.00 0.04 0.00 54 1017.2
20260831174533 75 296 2.0 6.0 0.00 0.04 0.00 53 1017.2
20260831174029 75 309 1.0 8.0 0.00 0.04 0.00 53 1017.1
20260831173548 75 309 2.0 9.0 0.00 0.04 0.00 52 1017.0
20260831173058 76 292 4.0 12.0 0.00 0.04 0.00 51 1017.0
20260831172534 76 309 3.0 13.0 0.00 0.04 0.00 51 1017.0
20260831172032 75 265 6.0 13.0 0.00 0.04 0.00 51 1017.0
20260831171548 75 282 5.0 12.0 0.00 0.04 0.00 51 1017.0
20260831171041 76 329 4.0 11.0 0.00 0.04 0.00 50 1017.0
20260831170534 76 321 2.0 11.0 0.00 0.04 0.00 50 1016.9
20260831170057 77 283 3.0 12.0 0.00 0.04 0.00 49 1016.9
20260831165531 77 279 4.0 16.0 0.00 0.04 0.00 48 1016.9
20260831165031 77 286 6.0 16.0 0.00 0.04 0.00 48 1016.8
20260831164544 78 304 6.0 15.0 0.00 0.04 0.00 48 1016.8
20260831164058 78 327 6.0 15.0 0.00 0.04 0.00 48 1016.7
20260831163536 79 290 8.0 14.0 0.00 0.04 0.00 48 1016.8
20260831163028 79 297 7.0 14.0 0.00 0.04 0.00 48 1016.8
20260831162541 79 321 5.0 13.0 0.00 0.04 0.00 47 1016.8
20260831162035 79 264 5.0 12.0 0.00 0.04 0.00 48 1016.7
20260831161549 79 311 5.0 14.0 0.00 0.04 0.00 46 1016.6
20260831161046 79 281 3.0 14.0 0.00 0.04 0.00 46 1016.7
20260831160539 79 311 7.0 16.0 0.00 0.04 0.00 46 1016.6
20260831160045 78 275 8.0 16.0 0.00 0.04 0.00 47 1016.6
20260831155541 77 319 6.0 13.0 0.00 0.04 0.00 48 1016.7
20260831155034 79 320 6.0 15.0 0.00 0.04 0.00 46 1016.8
20260831154531 80 274 4.0 15.0 0.00 0.04 0.00 45 1016.6
20260831154043 80 302 4.0 13.0 0.00 0.04 0.00 46 1016.6
20260831153540 79 355 2.0 16.0 0.00 0.04 0.00 48 1016.6
20260831153033 79 234 8.0 16.0 0.00 0.04 0.00 45 1016.6
20260831152547 79 319 9.0 15.0 0.00 0.04 0.00 46 1016.7
20260831152042 78 330 6.0 16.0 0.00 0.04 0.00 48 1016.5
20260831151537 78 293 7.0 16.0 0.00 0.04 0.00 46 1016.5
20260831151046 78 298 6.0 14.0 0.00 0.04 0.00 48 1016.6
20260831150539 79 308 5.0 17.0 0.00 0.04 0.00 47 1016.6
20260831150108 80 296 7.0 17.0 0.00 0.04 0.00 46 1016.5
20260831145604 80 224 5.0 13.0 0.00 0.04 0.00 47 1016.5
20260831145038 80 252 5.0 12.0 0.00 0.04 0.00 48 1016.6
20260831144534 79 251 4.0 12.0 0.00 0.04 0.00 49 1016.6
20260831144049 78 304 7.0 15.0 0.00 0.04 0.00 50 1016.6
20260831143541 78 307 8.0 16.0 0.00 0.04 0.00 50 1016.5
20260831143034 77 272 5.0 18.0 0.00 0.04 0.00 52 1016.6
20260831142529 78 273 7.0 18.0 0.00 0.04 0.00 50 1016.4
20260831142057 78 304 5.0 14.0 0.00 0.04 0.00 49 1016.5
20260831141549 80 294 7.0 15.0 0.00 0.04 0.00 48 1016.5
20260831141050 79 310 8.0 15.0 0.00 0.04 0.00 50 1016.5
20260831140542 78 286 3.0 17.0 0.00 0.04 0.00 51 1016.5
20260831140033 79 321 10.0 17.0 0.00 0.04 0.00 49 1016.4
20260831135530 80 302 6.0 16.0 0.00 0.04 0.00 49 1016.4
20260831135100 80 274 7.0 18.0 0.00 0.04 0.00 48 1016.4
20260831134534 80 290 9.0 18.0 0.00 0.04 0.00 49 1016.4
20260831134032 79 240 7.0 18.0 0.00 0.04 0.00 50 1016.4
20260831133540 78 276 5.0 17.0 0.00 0.04 0.00 52 1016.4
20260831133033 77 284 7.0 17.0 0.00 0.04 0.00 55 1016.5
20260831132547 77 225 9.0 16.0 0.00 0.04 0.00 56 1016.5
20260831132041 78 211 5.0 16.0 0.00 0.04 0.00 53 1016.5
20260831131535 79 275 6.0 17.0 0.00 0.04 0.00 52 1016.4
20260831131029 78 305 8.0 18.0 0.00 0.04 0.00 52 1016.3
20260831130540 79 269 8.0 18.0 0.00 0.04 0.00 50 1016.3
20260831130105 79 259 7.0 17.0 0.00 0.04 0.00 49 1016.2
20260831125539 79 280 7.0 21.0 0.00 0.04 0.00 49 1016.2
20260831125035 80 344 10.0 21.0 0.00 0.04 0.00 48 1016.1
20260831124547 80 251 8.0 16.0 0.00 0.04 0.00 50 1016.1
20260831124029 79 292 7.0 16.0 0.00 0.04 0.00 49 1016.0
20260831123547 79 289 8.0 20.0 0.00 0.04 0.00 51 1016.1
20260831123038 79 312 7.0 20.0 0.00 0.04 0.00 51 1016.1
20260831122548 78 269 8.0 15.0 0.00 0.04 0.00 51 1016.0
20260831122041 77 322 6.0 15.0 0.00 0.04 0.00 54 1016.1
20260831121536 77 244 5.0 17.0 0.00 0.04 0.00 54 1016.0
20260831121030 77 259 6.0 17.0 0.00 0.04 0.00 54 1016.2
20260831120540 77 229 5.0 15.0 0.00 0.04 0.00 54 1016.1
20260831120030 77 246 9.0 15.0 0.00 0.04 0.00 54 1016.1
20260831115545 76 240 6.0 16.0 0.00 0.04 0.00 58 1016.1
20260831115030 77 300 5.0 15.0 0.00 0.04 0.00 57 1016.0
20260831114607 76 242 7.0 17.0 0.00 0.04 0.00 60 1016.0
20260831114038 76 271 8.0 18.0 0.00 0.04 0.00 61 1016.1
20260831113530 76 296 10.0 18.0 0.00 0.04 0.00 62 1016.1
20260831113028 76 269 2.0 13.0 0.00 0.04 0.00 63 1016.1
20260831112542 75 244 7.0 13.0 0.00 0.04 0.00 65 1016.1
20260831112031 74 238 6.0 12.0 0.00 0.04 0.00 66 1016.2
20260831111608 73 309 2.0 14.0 0.00 0.04 0.00 69 1016.2
20260831111057 72 309 7.0 14.0 0.00 0.04 0.00 69 1016.2
20260831110548 71 290 5.0 14.0 0.00 0.04 0.00 71 1016.3
20260831110035 70 337 8.0 14.0 0.00 0.04 0.00 70 1016.2
20260831105531 71 276 4.0 14.0 0.00 0.04 0.00 68 1016.2
20260831105041 72 298 7.0 15.0 0.00 0.04 0.00 64 1016.2
20260831104537 74 296 6.0 16.0 0.00 0.04 0.00 63 1015.9
20260831104032 74 285 9.0 16.0 0.00 0.04 0.00 62 1015.9
20260831103543 74 328 6.0 15.0 0.00 0.04 0.00 65 1015.9
20260831103029 72 240 4.0 13.0 0.00 0.04 0.00 68 1016.0
20260831102543 71 279 5.0 13.0 0.00 0.04 0.00 68 1016.0
20260831102035 71 269 7.0 16.0 0.00 0.04 0.00 67 1015.9
20260831101552 72 292 9.0 16.0 0.00 0.04 0.00 66 1015.9
20260831101049 72 331 6.0 20.0 0.00 0.04 0.00 67 1016.0
20260831100538 72 194 5.0 16.0 0.00 0.04 0.00 67 1015.8
20260831100107 72 278 8.0 16.0 0.00 0.04 0.00 67 1015.9
20260831095603 72 214 5.0 12.0 0.00 0.04 0.00 67 1016.0
20260831095037 72 226 4.0 14.0 0.00 0.04 0.00 67 1015.9
20260831094546 72 230 6.0 16.0 0.00 0.04 0.00 67 1015.9
20260831094042 72 267 7.0 19.0 0.00 0.04 0.00 67 1015.9
20260831093607 71 271 9.0 15.0 0.00 0.04 0.00 67 1015.8
20260831093044 71 317 6.0 15.0 0.00 0.04 0.00 68 1015.9
20260831092536 71 214 7.0 16.0 0.00 0.04 0.00 68 1016.0
20260831092053 71 227 4.0 16.0 0.00 0.04 0.00 69 1015.9
20260831091543 71 308 5.0 17.0 0.00 0.04 0.00 69 1015.9
20260831091036 71 268 5.0 17.0 0.00 0.04 0.00 69 1015.9
20260831090555 71 290 8.0 14.0 0.00 0.04 0.00 69 1015.8
20260831090030 71 301 6.0 16.0 0.00 0.04 0.00 71 1015.8
20260831085530 70 271 5.0 17.0 0.00 0.04 0.00 72 1015.6
20260831085043 70 248 8.0 19.0 0.00 0.04 0.00 70 1015.6
20260831084539 70 281 8.0 17.0 0.00 0.04 0.00 73 1015.6
20260831084032 70 257 6.0 17.0 0.00 0.04 0.00 74 1015.6
20260831083543 69 284 7.0 14.0 0.00 0.04 0.00 76 1015.5
20260831083036 68 271 7.0 13.0 0.00 0.04 0.00 77 1015.4
20260831082530 68 218 3.0 18.0 0.00 0.04 0.00 77 1015.4
20260831082046 68 280 6.0 18.0 0.00 0.04 0.00 78 1015.5
20260831081603 68 204 3.0 13.0 0.00 0.04 0.00 79 1015.4
20260831081031 67 223 5.0 13.0 0.00 0.04 0.00 79 1015.4
20260831080614 67 222 6.0 15.0 0.00 0.04 0.00 81 1015.3
20260831080044 67 224 6.0 15.0 0.00 0.04 0.00 80 1015.4
20260831075540 67 230 7.0 13.0 0.00 0.04 0.00 81 1015.3
20260831075036 66 241 3.0 14.0 0.00 0.04 0.00 81 1015.3
20260831074531 66 287 5.0 12.0 0.00 0.04 0.00 82 1015.3
20260831074041 66 237 4.0 11.0 0.00 0.04 0.00 82 1015.2
20260831073537 66 279 2.0 10.0 0.00 0.04 0.00 83 1015.2
20260831073032 67 292 2.0 14.0 0.00 0.04 0.00 82 1015.2
20260831072543 67 211 4.0 17.0 0.00 0.04 0.00 82 1015.2
20260831072035 67 237 4.0 17.0 0.00 0.04 0.00 82 1015.1
20260831071548 67 253 3.0 9.0 0.00 0.04 0.00 82 1015.1
20260831071033 67 215 4.0 10.0 0.00 0.04 0.00 82 1015.0
20260831070540 67 240 2.0 10.0 0.00 0.04 0.00 84 1015.0
20260831070045 66 273 3.0 10.0 0.00 0.04 0.00 84 1014.9
20260831065541 65 270 2.0 10.0 0.00 0.04 0.00 85 1014.9
20260831065035 65 212 4.0 10.0 0.00 0.04 0.00 86 1014.9
20260831064534 64 210 3.0 11.0 0.00 0.04 0.00 86 1014.9
20260831064027 64 218 3.0 11.0 0.00 0.04 0.00 86 1014.9
20260831063539 64 227 3.0 11.0 0.00 0.04 0.00 86 1014.8
20260831063038 64 219 0.0 7.0 0.00 0.04 0.00 87 1014.9
20260831062530 64 285 2.0 10.0 0.00 0.04 0.00 87 1014.9
20260831062030 64 267 2.0 10.0 0.00 0.04 0.00 87 1014.8
20260831061543 64 260 1.0 9.0 0.00 0.04 0.00 87 1014.8
20260831061039 64 277 3.0 9.0 0.00 0.04 0.00 87 1014.8
20260831060534 64 197 3.0 9.0 0.00 0.04 0.00 87 1014.7
20260831060028 64 282 1.0 9.0 0.00 0.04 0.00 87 1014.7
20260831055606 63 223 1.0 7.0 0.00 0.04 0.00 87 1014.5
20260831055040 63 268 2.0 10.0 0.00 0.04 0.00 87 1014.4
20260831054533 63 226 3.0 10.0 0.00 0.04 0.00 88 1014.3
20260831054027 63 232 3.0 7.0 0.00 0.04 0.00 88 1014.4
20260831053547 63 236 1.0 11.0 0.00 0.04 0.00 88 1014.4
20260831053055 63 239 2.0 11.0 0.00 0.04 0.00 88 1014.4
20260831052529 63 217 2.0 7.0 0.00 0.04 0.00 88 1014.4
20260831052045 63 222 2.0 9.0 0.00 0.04 0.00 88 1014.4
20260831051540 63 232 2.0 11.0 0.00 0.04 0.00 88 1014.2
20260831051036 63 210 2.0 11.0 0.00 0.04 0.00 88 1014.2
20260831050552 63 238 3.0 11.0 0.00 0.04 0.00 88 1014.2
20260831050045 63 224 2.0 10.0 0.00 0.04 0.00 88 1014.2
20260831045542 63 261 4.0 10.0 0.00 0.04 0.00 88 1014.3
20260831045033 63 240 5.0 10.0 0.00 0.04 0.00 89 1014.2
20260831044546 63 250 2.0 10.0 0.00 0.04 0.00 89 1014.3
20260831044039 63 155 1.0 8.0 0.00 0.04 0.00 89 1014.2
20260831043538 63 213 2.0 8.0 0.00 0.04 0.00 89 1014.1
20260831043030 63 235 2.0 7.0 0.00 0.04 0.00 89 1014.2
20260831042541 63 225 2.0 9.0 0.00 0.04 0.00 89 1014.1
20260831042033 63 221 3.0 9.0 0.00 0.04 0.00 89 1014.1
20260831041545 63 215 3.0 9.0 0.00 0.04 0.00 89 1014.1
20260831041059 63 218 2.0 9.0 0.00 0.04 0.00 89 1014.2
20260831040538 63 215 2.0 9.0 0.00 0.04 0.00 89 1014.1
20260831040106 63 226 2.0 7.0 0.00 0.04 0.00 89 1014.2
20260831035536 63 209 3.0 8.0 0.00 0.04 0.00 89 1014.1
20260831035030 63 225 2.0 7.0 0.00 0.04 0.00 89 1014.2
20260831034539 63 190 3.0 7.0 0.00 0.04 0.00 89 1014.2
20260831034032 64 217 3.0 10.0 0.00 0.04 0.00 89 1014.2
20260831033535 64 286 1.0 10.0 0.00 0.04 0.00 89 1014.2
20260831033027 64 211 2.0 10.0 0.00 0.04 0.00 89 1014.2
20260831032539 64 240 2.0 10.0 0.00 0.04 0.00 89 1014.1
20260831032032 64 222 4.0 10.0 0.00 0.04 0.00 89 1014.0
20260831031545 64 234 2.0 11.0 0.00 0.04 0.00 89 1014.1
20260831031035 64 275 3.0 10.0 0.00 0.04 0.00 89 1014.2
20260831030530 64 229 3.0 10.0 0.00 0.04 0.00 89 1014.1
20260831030037 64 215 3.0 10.0 0.00 0.04 0.00 89 1013.9
20260831025530 63 196 3.0 11.0 0.00 0.04 0.00 89 1014.0
20260831025046 63 196 3.0 9.0 0.00 0.04 0.00 89 1014.0
20260831024541 63 225 2.0 9.0 0.00 0.04 0.00 89 1014.0
20260831024046 63 221 1.0 10.0 0.00 0.04 0.00 89 1013.9
20260831023539 63 293 3.0 10.0 0.00 0.04 0.00 90 1013.8
20260831023032 63 221 3.0 17.0 0.00 0.04 0.00 89 1013.8
20260831022544 63 213 5.0 17.0 0.00 0.04 0.00 90 1013.7
20260831022038 63 219 4.0 12.0 0.00 0.04 0.00 90 1013.7
20260831021536 63 231 4.0 12.0 0.00 0.04 0.00 91 1013.7
20260831021033 63 205 3.0 13.0 0.00 0.04 0.00 91 1013.7
20260831020541 63 223 3.0 13.0 0.00 0.04 0.00 91 1013.8
20260831020034 63 221 2.0 10.0 0.00 0.04 0.00 91 1013.8
20260831015554 63 200 3.0 8.0 0.00 0.04 0.00 91 1013.7
20260831015046 63 225 2.0 9.0 0.00 0.04 0.00 91 1013.7
20260831014539 63 248 3.0 9.0 0.00 0.04 0.00 91 1013.7
20260831014107 63 223 3.0 9.0 0.00 0.04 0.00 91 1013.7
20260831013600 63 215 3.0 10.0 0.00 0.04 0.00 91 1013.8
20260831013027 63 207 3.0 10.0 0.00 0.04 0.00 91 1013.7
20260831012541 63 209 2.0 9.0 0.00 0.04 0.00 91 1013.7
20260831012034 63 211 4.0 9.0 0.00 0.04 0.00 91 1013.7
20260831011534 63 223 5.0 10.0 0.00 0.04 0.00 91 1013.8
20260831011032 63 196 3.0 10.0 0.00 0.04 0.00 91 1013.8
20260831010539 63 181 5.0 9.0 0.00 0.04 0.00 91 1013.8
20260831010032 63 229 5.0 8.0 0.00 0.04 0.00 91 1013.8
20260831005546 63 218 4.0 9.0 0.00 0.04 0.00 91 1013.8
20260831005040 63 201 2.0 8.0 0.00 0.04 0.00 91 1013.8
20260831004536 63 214 5.0 10.0 0.00 0.04 0.00 91 1013.8
20260831004054 63 209 5.0 12.0 0.00 0.04 0.00 91 1013.7
20260831003548 63 203 3.0 15.0 0.00 0.04 0.00 91 1013.7
20260831003040 63 202 5.0 15.0 0.00 0.04 0.00 91 1013.6
20260831002557 63 265 2.0 12.0 0.00 0.04 0.00 91 1013.8
20260831002030 63 206 3.0 10.0 0.00 0.04 0.00 91 1013.9
20260831001543 63 221 4.0 10.0 0.00 0.04 0.00 91 1013.8
20260831001037 63 209 4.0 9.0 0.00 0.04 0.00 91 1013.7
20260831000549 63 249 2.0 10.0 0.00 0.04 0.00 91 1013.8
20260831000049 63 216 5.0 10.0 0.00 0.04 0.01 91 1013.7
20260830235557 63 212 5.0 9.0 0.00 0.04 0.01 91 1013.7
20260830235027 63 228 4.0 10.0 0.00 0.04 0.01 91 1013.7
20260830234543 63 217 3.0 10.0 0.00 0.04 0.01 91 1013.7
20260830234034 63 234 3.0 8.0 0.00 0.04 0.01 91 1013.7
20260830233550 63 201 4.0 9.0 0.00 0.04 0.01 91 1013.7
20260830233050 63 232 2.0 9.0 0.00 0.04 0.01 91 1013.7
20260830232525 63 215 2.0 8.0 0.00 0.04 0.01 91 1013.7
20260830232042 63 236 2.0 9.0 0.00 0.04 0.01 91 1013.7
20260830231600 63 236 4.0 9.0 0.00 0.04 0.01 91 1013.7
20260830231030 63 209 3.0 10.0 0.00 0.04 0.01 91 1013.7
20260830230541 63 240 2.0 9.0 0.00 0.04 0.01 91 1013.7
20260830230025 63 217 3.0 8.0 0.00 0.04 0.01 91 1013.6
20260830225542 63 188 2.0 8.0 0.00 0.04 0.01 91 1013.7
20260830225036 63 240 4.0 9.0 0.00 0.04 0.01 91 1013.6
20260830224533 63 217 4.0 10.0 0.00 0.04 0.01 90 1013.6
20260830224045 63 237 5.0 10.0 0.00 0.04 0.01 90 1013.6
20260830223540 63 236 4.0 13.0 0.00 0.04 0.01 90 1013.5
20260830223031 63 227 5.0 13.0 0.00 0.04 0.01 90 1013.5
20260830222542 63 267 3.0 10.0 0.00 0.04 0.01 90 1013.4
20260830222035 63 217 4.0 9.0 0.00 0.04 0.01 90 1013.4
20260830221548 63 217 5.0 9.0 0.00 0.04 0.01 90 1013.4
20260830221041 63 229 5.0 10.0 0.00 0.04 0.01 90 1013.3
20260830220557 63 204 3.0 9.0 0.00 0.04 0.01 90 1013.3
20260830220033 63 293 2.0 10.0 0.00 0.04 0.01 90 1013.3
20260830215529 63 207 1.0 9.0 0.00 0.04 0.01 89 1013.2
20260830215045 63 232 3.0 9.0 0.00 0.04 0.01 89 1013.2
20260830214542 63 210 3.0 9.0 0.00 0.04 0.01 90 1013.1
20260830214035 63 226 3.0 9.0 0.00 0.04 0.01 89 1013.1
20260830213531 64 242 5.0 10.0 0.00 0.04 0.01 89 1013.1
20260830213027 64 214 4.0 10.0 0.00 0.04 0.01 89 1013.1
20260830212541 64 222 4.0 9.0 0.00 0.04 0.01 89 1013.0
20260830212033 64 219 5.0 11.0 0.00 0.04 0.01 88 1013.0
20260830211541 64 216 6.0 11.0 0.00 0.04 0.01 88 1012.9
20260830211045 64 253 4.0 10.0 0.00 0.04 0.01 88 1012.9
20260830210540 64 227 2.0 8.0 0.00 0.04 0.01 88 1012.9
20260830210031 64 198 3.0 10.0 0.00 0.04 0.01 88 1012.9
20260830205531 64 228 4.0 10.0 0.00 0.04 0.01 87 1012.8
20260830205025 64 209 2.0 8.0 0.00 0.04 0.01 87 1012.8